TRA28U LOWI-EHAM

Flight info

Callsign TRA28U
Flight time 1h 18m
Altitude 36000
Route KOGOL M726 KEMES DCT GASKA DCT MAPOX DCT NORKU
Aircraft A321/M-SDE3FGHIRWY/LB1

Departure

Time 2026-05-06 18:09
Airport Innsbruck Airport (LOWI)

Arrival

Time 2026-05-06 19:27
Airport Amsterdam Airport Schiphol (EHAM)
Time Latitude Longitude Altitude Speed Heading
2026-05-06 17:46 47.25839 11.35168 1914 ft 0 kts 171°
2026-05-06 17:58 47.25850 11.35165 1914 ft 4 kts 171°
2026-05-06 17:58 47.25873 11.35159 1921 ft 4 kts 146°
2026-05-06 17:59 47.25885 11.35133 1898 ft 4 kts 92°
2026-05-06 17:59 47.25885 11.35109 1900 ft 2 kts 81°
2026-05-06 17:59 47.25884 11.35101 1902 ft 0 kts 81°
2026-05-06 18:02 47.25887 11.35126 1898 ft 4 kts 81°
2026-05-06 18:02 47.25891 11.35163 1903 ft 3 kts 81°
2026-05-06 18:03 47.25894 11.35190 1906 ft 2 kts 81°
2026-05-06 18:03 47.25896 11.35208 1911 ft 2 kts 81°
2026-05-06 18:03 47.25896 11.35214 1911 ft 4 kts 81°
2026-05-06 18:03 47.25904 11.35272 1914 ft 5 kts 72°
2026-05-06 18:04 47.25929 11.35290 1909 ft 4 kts 359°
2026-05-06 18:04 47.25954 11.35283 1910 ft 4 kts 350°
2026-05-06 18:04 47.25967 11.35280 1902 ft 0 kts 350°
2026-05-06 18:05 47.25971 11.35279 1914 ft 3 kts 350°
2026-05-06 18:05 47.26011 11.35270 1913 ft 6 kts 351°
2026-05-06 18:05 47.26054 11.35260 1910 ft 6 kts 351°
2026-05-06 18:05 47.26095 11.35252 1913 ft 6 kts 355°
2026-05-06 18:06 47.26118 11.35281 1905 ft 4 kts 71°
2026-05-06 18:06 47.26122 11.35325 1913 ft 8 kts 82°
2026-05-06 18:06 47.26133 11.35434 1908 ft 11 kts 81°
2026-05-06 18:06 47.26142 11.35542 1913 ft 10 kts 95°
2026-05-06 18:07 47.26108 11.35621 1905 ft 9 kts 120°
2026-05-06 18:07 47.26112 11.35699 1903 ft 7 kts 79°
2026-05-06 18:07 47.26143 11.35730 1913 ft 5 kts 357°
2026-05-06 18:07 47.26162 11.35698 1900 ft 4 kts 281°
2026-05-06 18:08 47.26159 11.35666 1913 ft 4 kts 260°
2026-05-06 18:08 47.26137 11.35478 1899 ft 51 kts 261°
2026-05-06 18:08 47.26042 11.34584 1913 ft 122 kts 260°
2026-05-06 18:08 47.25875 11.33114 2127 ft 151 kts 255°
2026-05-06 18:09 47.25791 11.31695 2958 ft 141 kts 271°
2026-05-06 18:09 47.25869 11.30235 3548 ft 145 kts 276°
2026-05-06 18:09 47.25988 11.28723 3917 ft 157 kts 276°
2026-05-06 18:09 47.26129 11.27051 4170 ft 171 kts 277°
2026-05-06 18:10 47.25988 11.25350 4604 ft 170 kts 236°
2026-05-06 18:10 47.24998 11.24546 4966 ft 170 kts 178°
2026-05-06 18:10 47.23920 11.25223 5319 ft 172 kts 141°
2026-05-06 18:10 47.23155 11.26562 5785 ft 171 kts 121°
2026-05-06 18:11 47.22768 11.28211 6241 ft 172 kts 99°
2026-05-06 18:11 47.22829 11.29994 6578 ft 179 kts 78°
2026-05-06 18:11 47.23340 11.31686 6926 ft 183 kts 64°
2026-05-06 18:11 47.23925 11.33326 7289 ft 185 kts 65°
2026-05-06 18:12 47.24527 11.35026 7678 ft 188 kts 65°
2026-05-06 18:12 47.25109 11.36764 8021 ft 190 kts 73°
2026-05-06 18:12 47.25549 11.38642 8210 ft 202 kts 75°
2026-05-06 18:12 47.25993 11.40709 8358 ft 221 kts 76°
2026-05-06 18:13 47.26466 11.42951 8483 ft 240 kts 76°
2026-05-06 18:13 47.26983 11.45391 8625 ft 258 kts 75°
2026-05-06 18:13 47.27543 11.48028 8762 ft 282 kts 75°
2026-05-06 18:13 47.28149 11.50862 9187 ft 296 kts 75°
2026-05-06 18:14 47.28778 11.53778 9833 ft 301 kts 75°
2026-05-06 18:14 47.29423 11.56763 10271 ft 315 kts 74°
2026-05-06 18:14 47.30108 11.59944 10410 ft 337 kts 74°
2026-05-06 18:14 47.30840 11.63339 10535 ft 358 kts 73°
2026-05-06 18:15 47.31940 11.66705 10875 ft 372 kts 56°
2026-05-06 18:15 47.33721 11.69499 11383 ft 379 kts 37°
2026-05-06 18:15 47.36082 11.71283 11964 ft 382 kts 14°
2026-05-06 18:15 47.38694 11.71700 12542 ft 380 kts 352°
2026-05-06 18:16 47.41227 11.70732 13148 ft 376 kts 331°
2026-05-06 18:16 47.43356 11.68566 13726 ft 371 kts 311°
2026-05-06 18:16 47.45167 11.65840 14232 ft 373 kts 310°
2026-05-06 18:16 47.46986 11.63079 14755 ft 376 kts 310°
2026-05-06 18:17 47.48815 11.60302 15273 ft 378 kts 310°
2026-05-06 18:17 47.50667 11.57495 15772 ft 381 kts 310°
2026-05-06 18:17 47.52533 11.54672 16276 ft 385 kts 310°
2026-05-06 18:17 47.54389 11.51861 16763 ft 388 kts 311°
2026-05-06 18:18 47.56287 11.48984 17254 ft 391 kts 310°
2026-05-06 18:18 47.58192 11.46092 17720 ft 395 kts 311°
2026-05-06 18:18 47.60281 11.43391 18166 ft 402 kts 321°
2026-05-06 18:18 47.62713 11.41263 18552 ft 409 kts 332°
2026-05-06 18:19 47.65408 11.39824 18923 ft 415 kts 343°
2026-05-06 18:19 47.68281 11.39137 19300 ft 420 kts 353°
2026-05-06 18:19 47.71208 11.38762 19677 ft 423 kts 353°
2026-05-06 18:19 47.74153 11.38374 20061 ft 425 kts 353°
2026-05-06 18:20 47.77070 11.37979 20428 ft 427 kts 353°
2026-05-06 18:20 47.80039 11.37572 20822 ft 430 kts 353°
2026-05-06 18:20 47.83024 11.37159 21213 ft 432 kts 353°
2026-05-06 18:20 47.86006 11.36749 21616 ft 434 kts 353°
2026-05-06 18:21 47.89051 11.36400 22031 ft 437 kts 354°
2026-05-06 18:21 47.92079 11.36131 22434 ft 439 kts 355°
2026-05-06 18:21 47.95158 11.35898 22832 ft 442 kts 355°
2026-05-06 18:21 47.98237 11.35678 23232 ft 444 kts 355°
2026-05-06 18:22 48.01336 11.35453 23586 ft 447 kts 355°
2026-05-06 18:22 48.04447 11.35215 23904 ft 449 kts 355°
2026-05-06 18:22 48.07578 11.34938 24227 ft 451 kts 353°
2026-05-06 18:22 48.10707 11.34492 24560 ft 452 kts 351°
2026-05-06 18:23 48.13840 11.33891 24880 ft 454 kts 349°
2026-05-06 18:23 48.16979 11.33202 25194 ft 456 kts 349°
2026-05-06 18:23 48.20085 11.32496 25495 ft 458 kts 349°
2026-05-06 18:23 48.23229 11.31796 25800 ft 461 kts 349°
2026-05-06 18:24 48.26425 11.31125 26104 ft 463 kts 350°
2026-05-06 18:24 48.29647 11.30527 26403 ft 466 kts 351°
2026-05-06 18:24 48.32863 11.30020 26694 ft 469 kts 352°
2026-05-06 18:24 48.36142 11.29547 26977 ft 472 kts 352°
2026-05-06 18:25 48.39420 11.29084 27260 ft 474 kts 352°
2026-05-06 18:25 48.42715 11.28605 27543 ft 477 kts 352°
2026-05-06 18:25 48.46011 11.28102 27818 ft 479 kts 352°
2026-05-06 18:25 48.49336 11.27577 28066 ft 482 kts 352°
2026-05-06 18:26 48.52671 11.27043 28312 ft 484 kts 352°
2026-05-06 18:26 48.56052 11.26499 28556 ft 486 kts 351°
2026-05-06 18:26 48.59423 11.25954 28786 ft 488 kts 351°
2026-05-06 18:26 48.62776 11.25412 29002 ft 490 kts 351°
2026-05-06 18:27 48.66154 11.24869 29202 ft 492 kts 351°
2026-05-06 18:27 48.69588 11.24320 29450 ft 493 kts 351°
2026-05-06 18:27 48.72998 11.23778 29730 ft 493 kts 351°
2026-05-06 18:27 48.76415 11.23232 29993 ft 493 kts 351°
2026-05-06 18:28 48.79804 11.22687 30238 ft 493 kts 351°
2026-05-06 18:28 48.83210 11.22138 30483 ft 493 kts 352°
2026-05-06 18:28 48.86658 11.21931 30729 ft 495 kts 358°
2026-05-06 18:28 48.90111 11.21950 30970 ft 495 kts 358°
2026-05-06 18:29 48.93553 11.21972 31222 ft 495 kts 358°
2026-05-06 18:29 48.97003 11.21999 31470 ft 495 kts 358°
2026-05-06 18:29 49.00445 11.22027 31716 ft 495 kts 358°
2026-05-06 18:29 49.03895 11.22052 31962 ft 495 kts 357°
2026-05-06 18:30 49.07339 11.22071 32213 ft 495 kts 357°
2026-05-06 18:30 49.10721 11.22085 32457 ft 495 kts 357°
2026-05-06 18:30 49.14205 11.22099 32724 ft 495 kts 357°
2026-05-06 18:30 49.17649 11.22115 32979 ft 495 kts 357°
2026-05-06 18:31 49.21100 11.21930 33220 ft 490 kts 347°
2026-05-06 18:31 49.24368 11.20672 33442 ft 480 kts 332°
2026-05-06 18:31 49.27345 11.18447 33658 ft 475 kts 326°
2026-05-06 18:31 49.30219 11.16102 33894 ft 474 kts 326°
2026-05-06 18:32 49.33125 11.13710 34110 ft 474 kts 326°
2026-05-06 18:32 49.36024 11.11311 34326 ft 473 kts 326°
2026-05-06 18:32 49.38920 11.08914 34535 ft 473 kts 326°
2026-05-06 18:32 49.41814 11.06523 34739 ft 472 kts 326°
2026-05-06 18:33 49.44703 11.04142 34943 ft 472 kts 326°
2026-05-06 18:33 49.47601 11.01753 35132 ft 472 kts 327°
2026-05-06 18:33 49.50499 10.99363 35330 ft 471 kts 327°
2026-05-06 18:33 49.53391 10.96971 35516 ft 471 kts 327°
2026-05-06 18:34 49.56274 10.94579 35704 ft 470 kts 327°
2026-05-06 18:34 49.59156 10.92185 35796 ft 469 kts 327°
2026-05-06 18:34 49.64860 10.87443 35806 ft 467 kts 327°
2026-05-06 18:35 49.70577 10.82678 35808 ft 466 kts 327°
2026-05-06 18:35 49.76281 10.77897 35799 ft 466 kts 327°
2026-05-06 18:36 49.81982 10.73112 35799 ft 465 kts 327°
2026-05-06 18:36 49.87631 10.68369 35803 ft 465 kts 327°
2026-05-06 18:37 49.92408 10.64349 35806 ft 465 kts 327°
2026-05-06 18:37 49.99024 10.58752 35805 ft 465 kts 327°
2026-05-06 18:38 50.04708 10.53923 35810 ft 465 kts 327°
2026-05-06 18:38 50.10401 10.49084 35811 ft 465 kts 327°
2026-05-06 18:39 50.16077 10.44261 35814 ft 465 kts 327°
2026-05-06 18:40 50.24574 10.36998 35813 ft 466 kts 327°
2026-05-06 18:40 50.30256 10.32119 35815 ft 466 kts 327°
2026-05-06 18:41 50.35620 10.26598 35815 ft 457 kts 313°
2026-05-06 18:41 50.39869 10.19340 35813 ft 451 kts 305°
2026-05-06 18:42 50.43956 10.11852 35810 ft 452 kts 306°
2026-05-06 18:42 50.48046 10.04365 35801 ft 452 kts 306°
2026-05-06 18:43 50.52129 9.96848 35806 ft 452 kts 306°
2026-05-06 18:43 50.56209 9.89306 35816 ft 452 kts 306°
2026-05-06 18:44 50.60286 9.81761 35816 ft 453 kts 306°
2026-05-06 18:44 50.64355 9.74201 35814 ft 452 kts 306°
2026-05-06 18:45 50.68398 9.66656 35821 ft 452 kts 306°
2026-05-06 18:45 50.72455 9.59079 35822 ft 452 kts 306°
2026-05-06 18:46 50.75826 9.52773 35825 ft 451 kts 306°
2026-05-06 18:46 50.80522 9.43969 35825 ft 451 kts 306°
2026-05-06 18:47 50.83912 9.37586 35836 ft 450 kts 306°
2026-05-06 18:47 50.87935 9.29986 35842 ft 450 kts 306°
2026-05-06 18:48 50.91908 9.22468 35852 ft 449 kts 306°
2026-05-06 18:48 50.95943 9.14913 35858 ft 449 kts 308°
2026-05-06 18:49 51.00241 9.07692 35856 ft 450 kts 311°
2026-05-06 18:49 51.04647 9.00615 35854 ft 450 kts 311°
2026-05-06 18:50 51.09009 8.93452 35857 ft 450 kts 310°
2026-05-06 18:50 51.13306 8.86223 35857 ft 449 kts 310°
2026-05-06 18:51 51.17589 8.78982 35860 ft 449 kts 310°
2026-05-06 18:51 51.21875 8.71754 35866 ft 449 kts 310°
2026-05-06 18:52 51.26158 8.64514 35870 ft 448 kts 310°
2026-05-06 18:52 51.30435 8.57271 35873 ft 448 kts 310°
2026-05-06 18:53 51.34709 8.50019 35879 ft 448 kts 310°
2026-05-06 18:53 51.38978 8.42741 35881 ft 448 kts 310°
2026-05-06 18:54 51.43240 8.35454 35884 ft 448 kts 310°
2026-05-06 18:54 51.47505 8.28144 35883 ft 448 kts 310°
2026-05-06 18:55 51.51762 8.20836 35885 ft 448 kts 310°
2026-05-06 18:55 51.55985 8.13565 35897 ft 448 kts 310°
2026-05-06 18:56 51.60223 8.06225 35895 ft 448 kts 310°
2026-05-06 18:56 51.64458 7.98876 35895 ft 447 kts 310°
2026-05-06 18:57 51.68683 7.91528 35895 ft 447 kts 310°
2026-05-06 18:57 51.72904 7.84165 35885 ft 446 kts 310°
2026-05-06 18:58 51.77106 7.76807 35892 ft 447 kts 310°
2026-05-06 18:58 51.81311 7.69425 35907 ft 446 kts 310°
2026-05-06 18:59 51.85517 7.61993 35642 ft 446 kts 310°
2026-05-06 18:59 51.87610 7.58295 35392 ft 445 kts 310°
2026-05-06 18:59 51.89677 7.54646 35182 ft 445 kts 310°
2026-05-06 18:59 51.91759 7.50977 34933 ft 445 kts 310°
2026-05-06 19:00 51.93852 7.47285 34687 ft 445 kts 310°
2026-05-06 19:00 51.95979 7.43522 34451 ft 445 kts 310°
2026-05-06 19:00 51.98024 7.39895 34222 ft 444 kts 310°
2026-05-06 19:00 52.00114 7.36172 33984 ft 444 kts 310°
2026-05-06 19:01 52.02191 7.32461 33459 ft 445 kts 310°
2026-05-06 19:01 52.04283 7.28718 32484 ft 448 kts 310°
2026-05-06 19:01 52.06388 7.24947 31555 ft 450 kts 310°
2026-05-06 19:01 52.08496 7.21169 30694 ft 451 kts 310°
2026-05-06 19:02 52.10606 7.17384 29620 ft 456 kts 311°
2026-05-06 19:02 52.12735 7.13563 28841 ft 452 kts 310°
2026-05-06 19:02 52.14821 7.09812 28308 ft 444 kts 310°
2026-05-06 19:02 52.16882 7.06101 27669 ft 439 kts 310°
2026-05-06 19:03 52.18914 7.02437 27062 ft 433 kts 310°
2026-05-06 19:03 52.20921 6.98812 26463 ft 428 kts 310°
2026-05-06 19:03 52.22883 6.95195 26021 ft 424 kts 309°
2026-05-06 19:03 52.24780 6.91501 25876 ft 424 kts 307°
2026-05-06 19:04 52.26372 6.87469 25919 ft 423 kts 293°
2026-05-06 19:04 52.27363 6.82966 25919 ft 422 kts 287°
2026-05-06 19:04 52.28261 6.78408 25829 ft 422 kts 286°
2026-05-06 19:04 52.29159 6.73803 24801 ft 428 kts 286°
2026-05-06 19:05 52.30054 6.69157 23957 ft 429 kts 286°
2026-05-06 19:05 52.30937 6.64542 23226 ft 425 kts 286°
2026-05-06 19:05 52.31815 6.59961 22442 ft 420 kts 287°
2026-05-06 19:05 52.32686 6.55426 21677 ft 416 kts 287°
2026-05-06 19:06 52.33553 6.50915 20924 ft 412 kts 287°
2026-05-06 19:06 52.34407 6.46463 20190 ft 409 kts 287°
2026-05-06 19:06 52.35248 6.42067 19461 ft 405 kts 287°
2026-05-06 19:06 52.36083 6.37674 18727 ft 401 kts 287°
2026-05-06 19:07 52.36901 6.33364 17993 ft 397 kts 287°
2026-05-06 19:07 52.37720 6.29046 17187 ft 393 kts 287°
2026-05-06 19:07 52.38520 6.24828 16587 ft 385 kts 287°
2026-05-06 19:07 52.39299 6.20699 16122 ft 375 kts 287°
2026-05-06 19:08 52.40057 6.16661 15647 ft 367 kts 287°
2026-05-06 19:08 52.40800 6.12705 15172 ft 360 kts 287°
2026-05-06 19:08 52.41530 6.08820 14709 ft 354 kts 287°
2026-05-06 19:08 52.42249 6.04996 14254 ft 349 kts 288°
2026-05-06 19:09 52.42957 6.01225 13798 ft 344 kts 287°
2026-05-06 19:09 52.43651 5.97500 13301 ft 339 kts 287°
2026-05-06 19:09 52.44334 5.93833 12848 ft 334 kts 288°
2026-05-06 19:09 52.45003 5.90224 12396 ft 328 kts 288°
2026-05-06 19:10 52.45662 5.86662 11915 ft 324 kts 288°
2026-05-06 19:10 52.46311 5.83142 11472 ft 320 kts 288°
2026-05-06 19:10 52.46953 5.79662 11018 ft 318 kts 288°
2026-05-06 19:10 52.47595 5.76184 10591 ft 314 kts 288°
2026-05-06 19:11 52.48203 5.72883 10468 ft 300 kts 288°
2026-05-06 19:11 52.48792 5.69668 10262 ft 290 kts 288°
2026-05-06 19:11 52.49370 5.66512 9994 ft 285 kts 288°
2026-05-06 19:11 52.49939 5.63420 9818 ft 284 kts 288°
2026-05-06 19:12 52.50451 5.60291 9699 ft 285 kts 280°
2026-05-06 19:12 52.50488 5.57048 9548 ft 286 kts 264°
2026-05-06 19:12 52.49962 5.53898 9421 ft 288 kts 247°
2026-05-06 19:12 52.48972 5.51035 9289 ft 289 kts 240°
2026-05-06 19:13 52.47926 5.48222 9153 ft 289 kts 240°
2026-05-06 19:13 52.46887 5.45405 8945 ft 288 kts 240°
2026-05-06 19:13 52.45849 5.42583 8700 ft 287 kts 240°
2026-05-06 19:13 52.44819 5.39782 8462 ft 287 kts 240°
2026-05-06 19:14 52.43786 5.36984 8220 ft 286 kts 240°
2026-05-06 19:14 52.42762 5.34214 7977 ft 286 kts 240°
2026-05-06 19:14 52.41737 5.31440 7728 ft 285 kts 240°
2026-05-06 19:14 52.40709 5.28656 7510 ft 284 kts 240°
2026-05-06 19:15 52.39683 5.25882 7252 ft 284 kts 239°
2026-05-06 19:15 52.38654 5.23115 6999 ft 283 kts 239°
2026-05-06 19:15 52.37629 5.20365 6770 ft 282 kts 239°
2026-05-06 19:15 52.36625 5.17670 6540 ft 281 kts 239°
2026-05-06 19:16 52.35608 5.14944 6290 ft 281 kts 239°
2026-05-06 19:16 52.34593 5.12221 6086 ft 271 kts 239°
2026-05-06 19:16 52.33623 5.09654 5952 ft 259 kts 238°
2026-05-06 19:16 52.32683 5.07249 5799 ft 250 kts 238°
2026-05-06 19:17 52.31748 5.04875 5481 ft 247 kts 238°
2026-05-06 19:17 52.30813 5.02517 5149 ft 247 kts 238°
2026-05-06 19:17 52.29881 5.00169 4789 ft 246 kts 238°
2026-05-06 19:17 52.28953 4.97827 4490 ft 244 kts 238°
2026-05-06 19:18 52.28030 4.95509 4445 ft 244 kts 238°
2026-05-06 19:18 52.27102 4.93181 4448 ft 245 kts 238°
2026-05-06 19:18 52.26173 4.90848 4447 ft 245 kts 238°
2026-05-06 19:18 52.25235 4.88506 4447 ft 245 kts 238°
2026-05-06 19:19 52.24304 4.86179 4446 ft 244 kts 238°
2026-05-06 19:19 52.23376 4.83861 4447 ft 244 kts 238°
2026-05-06 19:19 52.22447 4.81544 4446 ft 244 kts 238°
2026-05-06 19:19 52.21516 4.79226 4446 ft 244 kts 238°
2026-05-06 19:20 52.20586 4.76904 4445 ft 244 kts 238°
2026-05-06 19:20 52.19661 4.74589 4448 ft 244 kts 238°
2026-05-06 19:20 52.18733 4.72275 4444 ft 244 kts 238°
2026-05-06 19:20 52.17803 4.69965 4433 ft 243 kts 237°
2026-05-06 19:21 52.16876 4.67654 4109 ft 242 kts 238°
2026-05-06 19:21 52.15962 4.65366 3775 ft 242 kts 238°
2026-05-06 19:21 52.15044 4.63072 3476 ft 241 kts 237°
2026-05-06 19:21 52.14137 4.60785 3156 ft 240 kts 241°
2026-05-06 19:22 52.13681 4.58240 2946 ft 234 kts 274°
2026-05-06 19:22 52.14108 4.55761 2634 ft 226 kts 307°
2026-05-06 19:22 52.15241 4.54097 2263 ft 218 kts 340°
2026-05-06 19:22 52.16677 4.53777 2032 ft 205 kts 15°
2026-05-06 19:23 52.17990 4.54693 2011 ft 208 kts 30°
2026-05-06 19:23 52.19221 4.55884 2004 ft 200 kts 32°
2026-05-06 19:23 52.20364 4.57030 2003 ft 186 kts 32°
2026-05-06 19:23 52.21425 4.58101 2003 ft 171 kts 32°
2026-05-06 19:24 52.22429 4.59124 2019 ft 169 kts 32°
2026-05-06 19:24 52.23413 4.60136 1879 ft 164 kts 33°
2026-05-06 19:24 52.24169 4.61459 1669 ft 165 kts 59°
2026-05-06 19:24 52.24775 4.63064 1523 ft 166 kts 56°
2026-05-06 19:25 52.25404 4.64652 1323 ft 166 kts 56°
2026-05-06 19:25 52.25997 4.66174 1124 ft 151 kts 56°
2026-05-06 19:25 52.26545 4.67590 919 ft 143 kts 55°
2026-05-06 19:25 52.27077 4.68966 704 ft 143 kts 55°
2026-05-06 19:26 52.27612 4.70343 539 ft 143 kts 54°
2026-05-06 19:26 52.28125 4.71685 353 ft 134 kts 54°
2026-05-06 19:26 52.28611 4.72950 144 ft 130 kts 53°
2026-05-06 19:26 52.29088 4.74209 0 ft 127 kts 55°
2026-05-06 19:27 52.29487 4.75218 -4 ft 63 kts 60°
2026-05-06 19:27 52.29622 4.75558 -2 ft 22 kts 57°
2026-05-06 19:27 52.29720 4.75748 -4 ft 22 kts 32°
2026-05-06 19:27 52.29855 4.75865 -4 ft 22 kts 26°
2026-05-06 19:28 52.29982 4.75979 -2 ft 20 kts 36°
2026-05-06 19:28 52.30056 4.76158 -2 ft 19 kts 57°
2026-05-06 19:28 52.30127 4.76336 -2 ft 19 kts 57°
2026-05-06 19:28 52.30195 4.76519 -2 ft 19 kts 58°
2026-05-06 19:29 52.30265 4.76701 -2 ft 19 kts 57°
2026-05-06 19:29 52.30313 4.76823 -3 ft 19 kts 59°
2026-05-06 19:29 52.30387 4.77018 -3 ft 10 kts 50°
2026-05-06 19:29 52.30428 4.77046 -3 ft 10 kts
2026-05-06 19:30 52.30486 4.76995 -2 ft 10 kts 326°
2026-05-06 19:30 52.30559 4.76917 -2 ft 9 kts 328°
2026-05-06 19:30 52.30593 4.76881 -2 ft 8 kts 324°
2026-05-06 19:30 52.30618 4.76824 -2 ft 5 kts 299°
2026-05-06 19:31 52.30640 4.76772 -2 ft 7 kts 313°
2026-05-06 19:31 52.30673 4.76726 -2 ft 1 kts 294°
2026-05-06 19:31 52.30639 4.76671 -2 ft 6 kts 238°
2026-05-06 19:32 52.30634 4.76659 -2 ft 0 kts 238°
2026-05-06 19:32 52.30632 4.76653 -2 ft 1 kts 238°
2026-05-06 19:32 52.30631 4.76651 -2 ft 0 kts 238°